When you browse on this site, cookies collect data to enhance your experience and personalize the content and advertising you see.
Visit our Privacy Policy to learn more. By continuing to use the site, you agree to this use of cookies and data.
  • In Latvia
  • List of Countries
  • For 7 days
  • Water Temperature
  • Weather Map
  • Weather Widgets
  • user-avatar
    Login

    Hourly Weather Odienne

    Today, 17 September, Tuesday

    Time Temperature Precipitation Wind Pressure Humidity
    00:00 +24°C° 0.3 mm 1 mps 723 mmHg 92%
    01:00 +24°C° 0.3 mm 1 mps 722 mmHg 93%
    02:00 +22°C° 0.3 mm 0 mps 722 mmHg 93%
    03:00 +23°C° 0 mm 1 mps 722 mmHg 94%
    04:00 +23°C° 0 mm 1 mps 722 mmHg 95%
    05:00 +23°C° 0 mm 1 mps 723 mmHg 96%
    06:00 +24°C° 0 mm 1 mps 723 mmHg 92%
    07:00 +26°C° 0 mm 1 mps 723 mmHg 89%
    08:00 +27°C° 0 mm 1 mps 724 mmHg 85%
    09:00 +28°C° 0 mm 1 mps 723 mmHg 79%
    10:00 +30°C° 0 mm 2 mps 723 mmHg 73%
    11:00 +31°C° 0 mm 2 mps 723 mmHg 67%
    12:00 +31°C° 0.6 mm 2 mps 722 mmHg 70%
    13:00 +30°C° 0.6 mm 2 mps 721 mmHg 73%
    14:00 +30°C° 0.6 mm 2 mps 721 mmHg 76%
    15:00 +29°C° 0.7 mm 1 mps 721 mmHg 80%
    16:00 +29°C° 0.7 mm 1 mps 721 mmHg 83%
    17:00 +28°C° 0.7 mm 1 mps 721 mmHg 86%
    18:00 +27°C° 2.2 mm 1 mps 721 mmHg 89%
    19:00 +26°C° 2.2 mm 1 mps 722 mmHg 91%
    20:00 +25°C° 2.2 mm 1 mps 722 mmHg 93%
    21:00 +25°C° 0.9 mm 1 mps 722 mmHg 93%
    22:00 +25°C° 0.9 mm 1 mps 723 mmHg 94%
    23:00 +24°C° 0.9 mm 1 mps 723 mmHg 94%

    Tomorrow, 18 September, Wednesday

    Time Temperature Precipitation Wind Pressure Humidity
    00:00 +24°C° 0.6 mm 1 mps 723 mmHg 95%
    01:00 +24°C° 0.6 mm 1 mps 722 mmHg 96%
    02:00 +24°C° 0.6 mm 1 mps 722 mmHg 97%
    03:00 +24°C° 0.6 mm 1 mps 722 mmHg 97%
    04:00 +22°C° 0.6 mm 0 mps 723 mmHg 97%
    05:00 +21°C° 0.6 mm 0 mps 723 mmHg 97%
    06:00 +22°C° 0.3 mm 0 mps 723 mmHg 96%
    07:00 +24°C° 0.3 mm 1 mps 724 mmHg 95%
    08:00 +25°C° 0.3 mm 1 mps 724 mmHg 94%
    09:00 +25°C° 0.7 mm 1 mps 724 mmHg 91%
    10:00 +26°C° 0.7 mm 1 mps 724 mmHg 89%
    11:00 +27°C° 0.7 mm 1 mps 724 mmHg 87%
    12:00 +26°C° 0.5 mm 1 mps 723 mmHg 88%
    13:00 +26°C° 0.5 mm 1 mps 723 mmHg 89%
    14:00 +26°C° 0.5 mm 1 mps 722 mmHg 90%
    15:00 +25°C° 0 mm 1 mps 722 mmHg 90%
    16:00 +25°C° 0 mm 1 mps 722 mmHg 91%
    17:00 +23°C° 0 mm 0 mps 722 mmHg 91%
    18:00 +22°C° 0 mm 0 mps 723 mmHg 91%
    19:00 +22°C° 0 mm 0 mps 723 mmHg 91%
    20:00 +22°C° 0 mm 0 mps 724 mmHg 91%
    21:00 +22°C° 0 mm 0 mps 724 mmHg 92%
    22:00 +21°C° 0 mm 0 mps 724 mmHg 93%
    23:00 +21°C° 0 mm 0 mps 724 mmHg 93%

    Day after tomorrow, 19 September, Thursday

    Time Temperature Precipitation Wind Pressure Humidity
    00:00 +21°C° 0.1 mm 0 mps 723 mmHg 93%
    01:00 +21°C° 0.1 mm 0 mps 723 mmHg 92%
    02:00 +21°C° 0.1 mm 0 mps 723 mmHg 92%
    03:00 +21°C° 0 mm 0 mps 723 mmHg 93%
    04:00 +23°C° 0 mm 1 mps 723 mmHg 94%
    05:00 +23°C° 0 mm 1 mps 723 mmHg 96%
    06:00 +24°C° 0 mm 1 mps 724 mmHg 91%
    07:00 +25°C° 0 mm 1 mps 724 mmHg 87%
    08:00 +27°C° 0 mm 1 mps 724 mmHg 83%
    09:00 +28°C° 0 mm 1 mps 724 mmHg 77%
    10:00 +29°C° 0 mm 1 mps 724 mmHg 72%
    11:00 +31°C° 0 mm 1 mps 724 mmHg 67%
    12:00 +31°C° 0 mm 1 mps 723 mmHg 67%
    13:00 +31°C° 0 mm 1 mps 723 mmHg 67%
    14:00 +31°C° 0 mm 1 mps 722 mmHg 68%
    15:00 +30°C° 1.4 mm 1 mps 722 mmHg 75%
    16:00 +26°C° 1.4 mm 0 mps 722 mmHg 82%
    17:00 +25°C° 1.4 mm 0 mps 722 mmHg 89%
    18:00 +24°C° 1.1 mm 0 mps 723 mmHg 89%
    19:00 +24°C° 1.1 mm 0 mps 723 mmHg 90%
    20:00 +23°C° 1.1 mm 0 mps 723 mmHg 90%
    21:00 +23°C° 0.4 mm 0 mps 723 mmHg 91%
    22:00 +23°C° 0.4 mm 0 mps 723 mmHg 91%
    23:00 +22°C° 0.4 mm 0 mps 723 mmHg 92%

    20 September, Friday

    Time Temperature Precipitation Wind Pressure Humidity
    00:00 +22°C° 0 mm 0 mps 723 mmHg 93%
    01:00 +22°C° 0 mm 0 mps 722 mmHg 94%
    02:00 +24°C° 0 mm 1 mps 722 mmHg 94%
    03:00 +24°C° 0.1 mm 1 mps 722 mmHg 95%
    04:00 +23°C° 0.1 mm 1 mps 722 mmHg 95%
    05:00 +23°C° 0.1 mm 1 mps 723 mmHg 96%
    06:00 +24°C° 0.2 mm 1 mps 723 mmHg 94%
    07:00 +25°C° 0.2 mm 1 mps 723 mmHg 93%
    08:00 +25°C° 0.2 mm 1 mps 724 mmHg 92%
    09:00 +26°C° 1.9 mm 1 mps 723 mmHg 90%
    10:00 +27°C° 1.9 mm 1 mps 723 mmHg 88%
    11:00 +27°C° 1.9 mm 1 mps 723 mmHg 87%
    12:00 +28°C° 1.6 mm 1 mps 722 mmHg 85%
    13:00 +28°C° 1.6 mm 1 mps 722 mmHg 84%
    14:00 +29°C° 1.6 mm 1 mps 721 mmHg 82%
    15:00 +28°C° 1.4 mm 1 mps 721 mmHg 85%
    16:00 +27°C° 1.4 mm 1 mps 721 mmHg 88%
    17:00 +27°C° 1.4 mm 1 mps 721 mmHg 91%
    18:00 +26°C° 0.9 mm 1 mps 722 mmHg 92%
    19:00 +25°C° 0.9 mm 1 mps 722 mmHg 93%
    20:00 +25°C° 0.9 mm 1 mps 723 mmHg 94%
    21:00 +24°C° 0.5 mm 1 mps 723 mmHg 94%
    22:00 +24°C° 0.5 mm 1 mps 723 mmHg 95%
    23:00 +24°C° 0.5 mm 1 mps 724 mmHg 96%

    21 September, Saturday

    Time Temperature Precipitation Wind Pressure Humidity
    00:00 +23°C° 0 mm 1 mps 723 mmHg 96%
    01:00 +23°C° 0 mm 1 mps 723 mmHg 97%
    02:00 +23°C° 0 mm 1 mps 723 mmHg 97%
    03:00 +23°C° 0 mm 1 mps 723 mmHg 98%
    04:00 +23°C° 0 mm 1 mps 723 mmHg 98%
    05:00 +23°C° 0 mm 2 mps 723 mmHg 98%
    06:00 +24°C° 0 mm 2 mps 724 mmHg 95%
    07:00 +25°C° 0 mm 2 mps 724 mmHg 93%
    08:00 +26°C° 0 mm 2 mps 724 mmHg 90%
    09:00 +27°C° 0 mm 2 mps 724 mmHg 83%
    10:00 +29°C° 0 mm 2 mps 724 mmHg 77%
    11:00 +31°C° 0 mm 2 mps 724 mmHg 70%
    12:00 +30°C° 1.1 mm 2 mps 723 mmHg 74%
    13:00 +30°C° 1.1 mm 2 mps 722 mmHg 78%
    14:00 +29°C° 1.1 mm 1 mps 722 mmHg 82%
    15:00 +29°C° 1.5 mm 1 mps 722 mmHg 85%
    16:00 +28°C° 1.5 mm 1 mps 722 mmHg 88%
    17:00 +27°C° 1.5 mm 1 mps 722 mmHg 91%
    18:00 +26°C° 0 mm 1 mps 722 mmHg 92%
    19:00 +25°C° 0 mm 1 mps 723 mmHg 93%
    20:00 +25°C° 0 mm 1 mps 723 mmHg 95%
    21:00 +22°C° 0 mm 0 mps 724 mmHg 95%
    22:00 +22°C° 0 mm 0 mps 724 mmHg 95%
    23:00 +22°C° 0 mm 0 mps 724 mmHg 95%

    22 September, Sunday

    Time Temperature Precipitation Wind Pressure Humidity
    00:00 +22°C° 0.2 mm 0 mps 723 mmHg 95%
    01:00 +21°C° 0.2 mm 0 mps 723 mmHg 96%
    02:00 +21°C° 0.2 mm 0 mps 723 mmHg 96%
    03:00 +21°C° 0.5 mm 0 mps 723 mmHg 96%
    04:00 +21°C° 0.5 mm 0 mps 723 mmHg 97%
    05:00 +21°C° 0.5 mm 0 mps 724 mmHg 97%
    06:00 +24°C° 0.1 mm 1 mps 724 mmHg 95%
    07:00 +25°C° 0.1 mm 1 mps 725 mmHg 92%
    08:00 +26°C° 0.1 mm 1 mps 725 mmHg 89%
    09:00 +28°C° 0 mm 1 mps 725 mmHg 81%
    10:00 +30°C° 0 mm 1 mps 724 mmHg 74%
    11:00 +31°C° 0 mm 0 mps 724 mmHg 66%
    12:00 +32°C° 0.3 mm 1 mps 723 mmHg 67%
    13:00 +32°C° 0.3 mm 1 mps 723 mmHg 68%
    14:00 +31°C° 0.3 mm 2 mps 722 mmHg 70%
    15:00 +30°C° 0.5 mm 1 mps 722 mmHg 75%
    16:00 +29°C° 0.5 mm 1 mps 722 mmHg 80%
    17:00 +26°C° 0.5 mm 0 mps 722 mmHg 86%
    18:00 +25°C° 0.1 mm 0 mps 722 mmHg 87%
    19:00 +24°C° 0.1 mm 0 mps 723 mmHg 88%
    20:00 +24°C° 0.1 mm 0 mps 723 mmHg 89%
    21:00 +23°C° 0.1 mm 0 mps 723 mmHg 90%
    22:00 +23°C° 0.1 mm 0 mps 724 mmHg 91%
    23:00 +23°C° 0.1 mm 0 mps 724 mmHg 92%
    Show more